Theta_e
364 359 362 360 359 356 354 353 354 354 352 348 348 347 347 342 342 345 346 348 351 345
362 362 361 360 358 352 355 348 349 344 343 342 343 345 346 341 342 344 342 341 342 342
361 361 358 356 352 348 345 344 343 342 342 343 344 344 345 344 346 343 341 338 345 344
357 356 352 346 345 342 342 343 343 343 343 342 341 342 341 341 340 339 340 341 340 341
354 348 343 342 341 341 341 341 342 343 342 341 340 341 340 338 338 337 337 339 341 340
347 341 340 340 340 340 340 340 340 341 341 340 339 338 339 340 340 339 338 340 339 339
343 341 340 340 340 339 340 340 341 341 341 340 338 337 336 336 336 336 338 339 342 340
344 343 341 340 339 338 339 339 340 340 339 338 336 335 336 336 334 334 333 336 337 340
345 343 340 339 338 339 338 339 339 338 337 337 334 329 329 329 333 332 331 329 330 334
345 342 340 338 337 337 337 338 337 336 337 337 338 328 326 328 331 332 331 330 327 327
343 341 341 338 337 337 337 337 336 335 334 336 335 326 327 326 332 333 332 329 326 328
342 341 340 338 337 336 336 335 335 334 334 335 336 325 325 327 331 330 330 329 324 329
344 343 340 339 338 337 336 334 332 332 335 329 334 324 322 324 328 327 324 325 326 325
344 343 343 341 339 337 335 335 335 333 334 333 330 330 316 316 325 321 320 316 317 326
Wind_Speed
6 4 0 3 4 3 2 2 2 1 2 4 6 7 5 6 4 5 4 5 5 6
4 5 6 4 3 2 0 4 1 1 2 3 4 5 7 5 5 6 5 6 5 5
6 5 5 4 4 3 2 2 2 3 3 4 5 6 8 6 6 6 6 6 7 5
8 8 5 5 4 3 2 2 2 1 2 2 3 4 5 7 7 6 6 5 5 5
8 7 7 5 5 3 2 3 2 1 1 2 3 5 6 6 6 5 6 5 5 6
9 7 7 6 5 4 3 2 3 3 1 3 4 3 4 4 6 5 5 7 5 6
9 7 7 5 4 3 2 1 2 1 1 3 3 3 3 3 3 4 6 2 2 2
8 7 7 6 4 3 3 3 1 2 3 3 4 3 4 5 3 4 5 6 2 4
10 8 7 6 5 4 4 2 2 3 4 4 4 9 6 6 10 3 5 6 7 8
10 8 6 6 5 5 4 4 3 4 5 5 4 8 4 4 8 7 4 6 6 8
10 9 8 7 6 5 4 4 4 3 5 6 1 9 6 3 8 10 4 6 7 6
10 10 8 6 5 3 4 4 4 4 4 6 4 9 7 5 8 10 4 6 5 6
8 7 6 4 4 4 4 5 5 3 4 1 5 9 8 6 8 9 6 5 8 8
6 4 2 3 3 3 4 5 3 5 5 5 5 6 8 4 7 8 6 7 7 8
Wind_Direction
196 210 206 160 168 156 185 54 76 81 3 339 329 327 307 285 309 345 320 299 293 295
177 223 115 98 149 140 301 138 137 26 24 9 348 341 334 315 323 338 306 321 295 288
131 99 125 127 50 37 86 2 34 29 12 13 9 359 347 341 36 338 319 313 17 325
141 142 145 127 129 134 99 118 89 40 38 33 7 358 346 335 300 326 320 312 301 310
142 150 130 139 121 125 158 169 148 106 75 354 4 356 348 327 339 312 311 323 309 318
152 158 137 139 135 139 173 164 120 130 63 327 336 347 336 335 335 328 323 20 336 338
164 144 136 126 117 126 131 158 90 295 252 280 289 318 358 358 348 333 335 346 356 341
139 135 140 136 131 153 149 112 346 266 256 280 270 237 36 329 297 331 328 328 329 57
154 159 151 142 152 161 145 182 187 259 268 259 298 83 63 340 312 325 306 333 326 312
158 152 157 161 170 167 173 193 219 251 274 276 234 139 119 317 297 313 332 307 318 304
163 156 169 179 179 175 186 215 230 253 270 273 225 163 175 238 283 281 274 303 302 298
166 166 176 181 173 200 215 223 232 243 258 256 217 179 190 230 275 274 295 282 283 294
169 175 178 178 185 197 221 248 276 246 249 19 294 178 193 222 270 284 285 290 230 177
165 156 208 185 200 225 236 299 255 273 251 261 266 151 189 203 274 296 311 295 284 130